Terminal Aerodrome Forecast
Issued by NWS Amarillo, TX

Home | Current Version | Previous Version | Text Only | Print | Product List | Glossary On
Versions: 1 2 3 4 5 6 7 8 9 10 11 12 13 14 15 16 17
000
FTUS44 KAMA 281140
TAFAMA
TAF
KAMA 281140Z 2812/2912 12019KT P6SM OVC015
     FM281400 13025KT 6SM SHRA BR OVC010
      TEMPO 2817/2821 VRB25G40KT 2SM TSRA BR OVC008CB
     FM282100 12020G30KT 5SM -SHRA OVC010 PROB30 2900/2906 TSRA
      OVC025CB
     FM290600 09010KT 5SM -SHRA OVC010 PROB30 2906/2912 P6SM TSRA
      OVC025CB=

USA.gov is the U.S. government's official web portal to all federal, state and local government web resources and services.